Wind_Speed
13 14 14 16 17 17 16 15 14 14 15 17 16 15 13 12 11 11 12 13 13 14 14 15 20 24 27 28 26 23 23 25 24 22 22 22 23 22 20 22 21 17
15 15 15 16 18 19 17 16 15 14 14 17 17 16 16 15 13 12 12 12 13 15 15 15 18 23 25 24 22 22 21 24 25 22 19 20 21 22 21 22 24 22
16 16 16 16 18 19 19 17 15 14 13 15 17 17 16 17 16 14 12 12 13 14 15 16 18 21 23 21 21 22 23 25 25 21 20 20 20 21 22 22 21 22
16 15 16 16 17 19 20 18 16 16 14 14 16 18 17 16 17 16 13 12 14 15 15 17 18 20 21 22 23 23 23 24 24 22 21 18 18 20 22 21 21 22
16 16 15 16 17 18 20 19 19 19 18 16 16 18 19 18 18 17 14 13 15 15 16 17 18 19 21 23 24 23 23 22 21 21 20 18 20 21 21 23 23 24
17 16 16 16 16 18 19 19 20 21 20 17 16 17 18 20 20 18 16 15 16 16 16 17 18 19 21 24 24 23 23 23 20 20 20 19 21 21 21 23 23 24
17 17 17 17 17 18 18 18 19 21 21 20 18 17 17 20 20 18 16 16 17 17 17 17 17 18 20 23 24 24 24 23 21 20 20 18 18 20 22 24 24 25
18 18 17 18 19 18 18 19 20 20 20 21 20 20 19 20 20 18 17 17 18 19 19 18 18 19 19 22 24 26 25 23 21 21 22 20 18 20 24 24 25 25
18 18 18 19 20 18 18 20 20 20 20 20 21 21 21 22 21 19 18 18 20 21 20 20 20 20 20 20 22 25 26 24 22 22 24 25 23 23 24 23 22 24
19 19 19 20 20 19 20 20 21 20 20 20 21 21 21 22 23 21 19 20 23 22 19 20 21 21 22 22 22 24 25 24 24 24 25 26 26 25 25 24 23 23
20 20 20 21 21 21 21 21 21 20 21 21 21 22 22 22 23 22 20 20 22 22 20 19 20 22 23 23 25 26 25 24 24 24 24 24 25 26 26 25 24 24
21 21 21 21 21 21 21 21 21 21 21 22 21 22 23 23 23 22 22 22 22 22 20 20 20 22 22 22 24 25 24 22 21 21 22 23 24 26 26 24 22 23
21 21 21 21 22 22 22 21 21 21 21 22 22 22 23 24 24 24 23 23 23 23 21 20 20 21 21 21 22 23 22 20 18 19 22 23 23 24 24 22 21 22
21 21 21 21 22 22 22 22 22 22 22 22 22 23 23 24 25 26 25 24 23 23 22 21 21 22 22 21 22 24 24 21 20 20 23 24 23 23 22 21 24 25
20 20 21 21 22 22 22 23 23 23 23 23 23 23 23 24 25 25 26 26 25 23 21 21 22 24 22 21 22 23 23 24 24 22 21 22 22 22 21 20 24 26
20 20 21 21 22 22 23 23 24 23 23 24 24 24 24 24 25 25 26 27 26 24 22 22 22 22 22 21 22 23 23 24 23 19 18 20 20 20 19 19 22 24
21 21 21 21 22 23 23 23 24 24 24 24 24 25 25 24 24 25 25 26 26 25 24 24 22 21 23 25 24 23 22 23 21 18 21 23 23 22 19 18 21 22
20 21 21 22 22 23 23 23 24 25 25 25 25 25 26 25 25 25 25 25 25 26 25 24 24 22 20 22 23 24 23 23 22 21 23 24 23 22 20 18 19 19
21 21 21 22 22 23 23 23 23 25 25 25 25 25 25 25 25 25 25 25 26 27 27 25 24 23 22 19 18 21 22 23 24 24 23 22 22 22 21 20 19 17
20 21 21 22 23 23 23 23 24 25 25 25 25 25 25 25 25 25 25 25 26 27 27 27 26 25 26 24 20 18 18 20 23 25 23 22 23 24 23 24 23 20
20 21 21 22 22 23 23 24 25 25 25 25 25 25 25 24 24 25 25 25 26 27 27 29 28 28 28 27 24 23 20 19 20 22 22 22 23 24 25 25 24 21
20 21 21 22 22 22 23 23 24 25 25 25 24 25 25 24 24 25 25 25 26 27 28 30 30 30 30 29 27 25 23 23 21 21 22 24 23 22 22 23 22 20
20 21 21 21 22 23 23 23 23 23 24 24 25 25 25 25 24 25 25 25 25 27 28 30 31 30 30 30 28 25 23 23 21 20 22 24 23 19 15 15 16 18
20 21 21 21 22 22 23 23 23 23 23 24 24 24 25 25 25 25 25 24 24 26 27 29 31 31 30 30 27 24 21 19 18 19 21 21 18 13 9 12 13 14
20 21 21 21 22 22 22 22 22 23 24 23 22 22 23 25 25 25 25 25 24 25 27 29 31 31 31 30 26 22 18 16 14 14 14 13 13 12 10 12 13 13
20 21 21 21 22 22 22 22 21 22 23 24 23 22 22 23 24 24 26 26 25 25 26 29 31 32 33 31 25 20 16 12 9 6 7 9 10 11 12 11 12 12
Wind_Direction
336 330 323 315 310 307 302 299 301 301 297 292 287 283 279 269 256 250 247 244 242 238 232 228 225 221 219 220 220 218 214 213 212 212 213 212 213 214 214 215 217 221
341 338 332 323 317 315 313 308 303 303 299 293 286 279 279 279 270 255 247 245 244 241 236 230 227 225 224 224 223 219 214 213 214 212 208 208 210 210 213 218 221 222
343 338 334 329 322 320 321 315 306 302 298 295 293 284 277 279 281 270 252 244 244 243 237 231 228 229 228 227 225 222 218 216 213 208 207 210 211 211 215 219 222 222
344 340 335 331 326 323 323 320 313 306 301 296 297 294 285 281 283 278 265 252 246 242 237 233 231 231 232 230 227 224 224 222 215 210 210 210 208 207 211 217 220 224
346 343 338 334 330 327 323 320 316 314 311 302 294 294 290 283 276 271 268 262 253 245 240 236 232 231 234 234 230 227 229 227 220 214 210 207 208 206 206 211 215 220
350 347 344 339 333 330 326 320 318 319 319 313 300 292 285 279 272 268 268 267 261 253 245 243 238 231 232 235 234 230 228 227 222 215 209 208 211 208 205 208 210 216
353 352 349 345 338 333 330 326 324 322 319 317 310 298 288 282 278 275 273 271 268 263 256 251 245 237 231 230 231 230 227 227 224 215 210 211 210 208 208 209 211 214
355 354 352 348 343 338 335 332 329 326 320 316 312 307 301 294 287 281 276 274 274 273 269 261 252 245 238 229 227 228 228 228 225 217 214 213 210 210 211 210 209 211
356 356 353 351 348 343 340 336 331 328 325 318 312 308 305 300 295 289 282 278 273 269 268 266 260 254 246 236 229 227 226 226 225 220 217 213 212 212 211 208 205 207
357 356 353 352 350 346 342 339 335 331 328 325 318 311 305 300 298 296 291 283 275 270 268 266 265 262 254 244 238 233 228 225 222 220 220 218 214 212 211 209 208 207
357 356 353 351 351 348 343 341 339 335 332 329 324 319 313 306 301 299 295 287 278 275 276 273 270 269 261 249 243 241 235 228 222 219 222 221 217 215 215 213 210 210
356 355 352 350 350 348 346 344 341 338 334 331 328 326 322 317 311 305 299 293 288 284 283 279 273 273 267 255 250 248 241 234 226 221 224 224 222 223 222 216 210 211
356 354 352 351 350 349 348 346 344 341 338 335 332 329 328 327 324 319 311 303 298 295 292 283 275 271 266 260 256 253 247 242 234 226 227 229 226 224 220 213 209 207
356 354 353 352 351 350 350 349 346 344 341 339 336 333 333 333 332 331 327 319 310 304 297 284 275 272 269 262 256 253 250 248 242 233 232 232 230 227 222 217 215 214
357 356 354 354 354 353 353 351 349 347 344 342 341 338 337 337 337 338 336 332 326 318 306 288 277 275 275 267 260 256 253 249 245 240 235 232 229 228 223 218 219 219
359 358 357 356 356 356 355 353 352 351 348 345 344 342 341 341 341 342 342 339 334 328 319 304 289 280 275 270 263 257 252 249 246 243 238 232 228 225 217 210 217 220
1 1 359 358 359 358 357 356 355 354 351 348 347 346 344 344 344 344 344 343 340 335 328 321 315 300 282 274 269 262 255 251 246 240 238 235 232 232 223 212 216 220
3 2 1 1 1 360 359 358 357 356 354 351 350 349 347 347 347 346 346 344 344 342 334 330 333 325 301 283 274 268 265 258 248 242 243 239 233 233 228 217 216 216
4 4 3 3 3 1 0 359 359 358 357 354 352 350 349 348 348 348 347 346 346 346 341 336 335 329 321 310 290 273 268 264 254 248 245 237 230 232 232 228 226 219
4 4 3 2 2 2 1 1 1 359 358 356 354 353 351 351 349 349 349 349 347 345 342 341 338 329 322 320 311 292 277 268 260 252 243 232 229 234 235 234 233 227
5 4 2 2 1 1 1 0 0 0 360 358 357 357 355 353 352 351 350 350 350 348 344 342 342 337 329 321 313 305 294 282 273 262 250 238 231 229 230 230 228 225
6 5 4 3 2 1 1 360 359 359 360 358 357 358 359 358 358 357 355 352 353 353 349 345 343 342 338 328 317 309 300 290 283 271 256 243 234 231 231 230 223 222
9 7 6 4 3 3 2 1 0 358 358 358 358 359 1 1 2 2 1 358 357 357 355 351 349 348 344 335 326 318 308 295 286 273 258 243 234 235 230 211 204 212
12 11 9 6 5 4 3 2 2 1 359 358 359 0 2 2 2 3 4 3 1 1 359 356 355 355 351 343 334 325 317 306 291 272 255 236 216 207 186 162 167 187
13 12 11 9 8 7 5 4 3 2 3 1 0 360 0 1 2 3 4 6 4 3 3 2 1 2 360 354 343 331 323 315 299 271 242 212 180 161 143 143 157 170
13 11 10 10 9 8 8 8 5 3 3 4 4 3 1 1 2 2 4 7 6 7 9 9 8 9 9 7 359 346 337 324 307 265 192 161 142 135 126 126 141 155
Height
809 807 805 804 802 800 799 797 797 796 794 793 792 791 789 788 787 786 786 785 785 785 785 786 785 786 787 788 789 791 791 792 794 797 800 803 803 803 802 802 802 804
809 808 806 804 802 800 799 797 796 795 794 792 791 789 788 787 786 784 784 783 783 783 783 783 784 784 786 786 787 789 789 789 791 793 796 798 799 799 799 799 800 802
810 809 807 805 803 801 799 797 796 795 794 793 791 789 787 786 785 784 782 781 781 782 781 781 781 782 783 784 785 786 786 787 788 789 791 792 794 795 796 798 799 800
811 809 807 806 803 801 799 797 796 794 793 792 791 790 788 785 785 784 781 780 780 780 780 780 780 780 780 781 783 784 785 786 786 786 788 789 791 792 794 796 797 797
812 810 807 806 804 802 800 797 796 794 792 792 791 789 788 786 785 783 780 779 779 779 779 779 779 778 778 779 780 781 783 785 785 785 785 786 787 789 791 793 794 795
812 810 808 806 804 803 801 798 796 794 792 791 790 788 787 786 784 781 779 778 778 777 777 777 777 777 777 777 777 778 780 782 783 782 782 783 785 786 787 789 791 793
812 810 808 807 805 803 801 798 796 794 792 790 788 787 785 784 782 779 778 777 776 776 776 776 776 776 776 775 775 776 777 779 780 779 780 781 782 783 784 786 788 790
812 810 808 807 805 803 801 799 797 794 792 790 787 785 784 782 780 778 777 776 775 775 774 775 775 775 774 774 774 774 775 776 776 776 777 778 779 780 782 784 786 787
812 810 808 807 805 803 801 799 797 794 792 790 787 785 783 781 779 778 777 775 773 772 772 773 773 773 772 772 772 772 772 773 773 773 774 775 776 777 779 781 782 784
813 811 809 807 805 804 801 799 797 795 792 790 787 785 783 781 779 777 776 774 772 770 770 771 771 771 772 771 770 770 770 771 770 770 772 773 774 775 777 778 779 780
814 812 810 808 806 804 802 800 797 795 792 790 787 785 782 781 779 777 775 773 772 771 771 770 769 771 772 772 770 769 769 769 768 768 769 770 772 773 774 775 776 776
815 813 812 810 807 805 803 800 798 795 793 790 787 785 782 780 778 777 775 774 772 772 771 769 767 768 770 770 769 768 767 767 766 765 766 767 769 771 772 773 773 774
817 815 813 811 809 806 804 801 799 796 794 791 788 786 783 781 779 777 775 773 772 771 771 769 766 766 766 766 766 767 766 765 764 763 763 764 766 768 770 771 771 772
819 817 815 813 811 808 805 803 800 797 795 792 789 786 784 782 780 777 775 773 771 771 771 769 766 764 763 763 763 763 763 762 762 761 760 761 763 765 767 769 769 770
821 819 817 814 812 809 807 804 801 799 796 793 790 788 785 783 780 778 776 773 771 770 769 767 765 762 762 762 761 760 759 760 760 759 759 760 760 762 764 766 766 767
823 821 818 816 813 811 808 806 803 800 797 794 792 789 786 784 781 779 776 774 772 770 768 766 764 762 761 760 759 759 758 758 759 759 759 759 758 760 761 762 764 766
824 822 820 817 815 812 810 807 805 802 799 796 793 790 788 785 783 781 778 775 773 770 767 765 763 762 760 758 758 758 757 756 757 758 758 758 758 759 760 760 762 764
826 824 822 819 817 814 812 809 807 804 801 798 795 792 789 787 784 782 780 777 774 771 768 765 763 761 758 756 756 756 756 755 755 756 756 757 757 758 758 759 760 762
829 826 823 821 818 816 814 811 809 806 803 800 797 794 791 788 786 783 781 778 775 772 768 765 763 760 757 755 754 753 754 754 754 755 756 756 756 756 757 758 759 761
831 828 825 823 820 818 815 813 811 808 806 803 800 797 793 790 787 785 782 780 777 773 770 766 764 761 757 755 753 752 752 752 752 754 755 756 756 756 757 758 759 760
832 830 828 825 822 820 817 815 813 810 808 805 802 799 796 793 790 787 784 781 778 775 771 768 765 762 758 755 753 751 751 750 750 752 754 754 755 756 757 757 757 759
833 831 829 827 824 822 819 817 815 812 810 808 805 802 799 796 792 789 786 783 780 777 773 769 766 762 759 756 753 751 750 749 749 750 751 751 752 753 754 754 755 757
835 833 831 828 826 823 821 819 817 815 812 810 807 804 801 798 795 792 789 786 782 779 775 771 767 764 760 757 754 751 749 748 748 748 748 748 748 750 752 752 752 755
836 834 832 830 828 825 823 821 819 817 815 812 810 807 804 802 799 795 792 789 785 782 778 774 770 766 762 758 754 752 749 747 747 747 746 745 745 748 749 749 750 753
838 836 834 832 830 827 825 823 820 818 816 814 812 810 807 805 802 799 795 792 789 785 781 777 772 768 764 759 755 752 749 747 747 746 745 744 743 745 746 747 748 751
839 838 836 833 831 829 826 825 822 820 818 816 814 812 809 807 805 802 799 795 792 789 785 781 776 771 767 762 757 753 750 748 748 747 745 744 744 744 745 747 748 750